| time (UTC) | temp C | wind direction | speed KPH | gust KPH | rain 1hr cm | rain 24hr cm | rain mn cm | humidity % | barometer mb |
| 20260505171613 | 26 | 0 | 4.8 | 16.1 | 0.00 | 0.00 | 0.00 | 86 | 994.9 |
| 20260505170852 | 26 | 0 | 4.8 | 16.1 | 0.00 | 0.00 | 0.00 | 86 | 995.0 |
| 20260505170352 | 26 | 0 | 4.8 | 16.1 | 0.00 | 0.00 | 0.00 | 86 | 994.9 |
| 20260505170116 | 26 | 0 | 6.4 | 19.3 | 0.00 | 0.00 | 0.00 | 87 | 995.0 |
| 20260505165352 | 26 | 0 | 4.8 | 19.3 | 0.00 | 0.00 | 0.00 | 87 | 995.0 |
| 20260505164854 | 26 | 0 | 4.8 | 12.9 | 0.00 | 0.00 | 0.00 | 87 | 995.0 |
| 20260505164614 | 26 | 0 | 4.8 | 19.3 | 0.00 | 0.00 | 0.00 | 87 | 995.0 |
| 20260505163855 | 25 | 0 | 4.8 | 19.3 | 0.00 | 0.00 | 0.00 | 88 | 995.1 |
| 20260505163354 | 25 | 182 | 3.2 | 14.5 | 0.00 | 0.00 | 0.00 | 88 | 995.1 |
| 20260505162852 | 25 | 216 | 3.2 | 14.5 | 0.00 | 0.00 | 0.00 | 88 | 995.2 |
| 20260505162351 | 25 | 148 | 3.2 | 11.3 | 0.00 | 0.00 | 0.00 | 88 | 995.3 |
| 20260505162118 | 25 | 234 | 4.8 | 19.3 | 0.00 | 0.00 | 0.00 | 88 | 995.3 |
| 20260505161615 | 25 | 217 | 4.8 | 19.3 | 0.00 | 0.00 | 0.00 | 88 | 995.2 |
| 20260505161120 | 25 | 169 | 3.2 | 11.3 | 0.00 | 0.00 | 0.00 | 88 | 995.1 |
| 20260505160352 | 25 | 148 | 4.8 | 11.3 | 0.00 | 0.00 | 0.00 | 88 | 995.0 |
| 20260505153349 | 25 | 0 | 3.2 | 16.1 | 0.00 | 0.00 | 0.00 | 88 | 995.0 |
| 20260505152851 | 25 | 0 | 4.8 | 16.1 | 0.00 | 0.00 | 0.00 | 88 | 994.8 |
| 20260505152350 | 25 | 0 | 4.8 | 16.1 | 0.00 | 0.00 | 0.00 | 88 | 994.8 |
| 20260505151850 | 25 | 0 | 4.8 | 16.1 | 0.00 | 0.00 | 0.00 | 88 | 994.8 |
| 20260505151350 | 25 | 0 | 4.8 | 17.7 | 0.00 | 0.00 | 0.00 | 88 | 994.8 |
| 20260505150851 | 25 | 0 | 3.2 | 17.7 | 0.00 | 0.00 | 0.00 | 88 | 994.8 |
| 20260505150351 | 25 | 0 | 4.8 | 14.5 | 0.00 | 0.00 | 0.00 | 89 | 994.7 |
| 20260505140337 | 23 | 0 | 6.4 | 19.3 | 0.00 | 0.00 | 0.00 | 91 | 994.6 |
| 20260505124546 | 22 | 0 | 3.2 | 9.7 | 0.00 | 0.00 | 0.00 | 92 | 994.2 |
| 20260505124040 | 22 | 0 | 3.2 | 9.7 | 0.00 | 0.00 | 0.00 | 92 | 993.9 |
| 20260505123319 | 22 | 0 | 3.2 | 8.0 | 0.00 | 0.00 | 0.00 | 92 | 993.9 |
| 20260505122817 | 22 | 0 | 1.6 | 8.0 | 0.00 | 0.00 | 0.00 | 92 | 994.0 |
| 20260505122316 | 22 | 0 | 1.6 | 8.0 | 0.00 | 0.00 | 0.00 | 92 | 994.2 |
| 20260505121815 | 22 | 0 | 3.2 | 8.0 | 0.00 | 0.00 | 0.00 | 92 | 994.2 |
| 20260505121313 | 22 | 0 | 1.6 | 9.7 | 0.00 | 0.00 | 0.00 | 92 | 994.4 |
| 20260505120814 | 22 | 0 | 1.6 | 9.7 | 0.00 | 0.00 | 0.00 | 92 | 994.2 |
| 20260505120311 | 22 | 0 | 3.2 | 9.7 | 0.00 | 0.00 | 0.00 | 92 | 994.2 |
| 20260505120034 | 22 | 0 | 3.2 | 9.7 | 0.00 | 0.00 | 0.00 | 92 | 994.1 |
| 20260505115312 | 22 | 0 | 1.6 | 9.7 | 0.00 | 0.00 | 0.00 | 92 | 994.1 |
| 20260505114813 | 22 | 0 | 3.2 | 8.0 | 0.00 | 0.00 | 0.00 | 92 | 994.0 |
| 20260505114312 | 22 | 0 | 3.2 | 8.0 | 0.00 | 0.00 | 0.00 | 92 | 993.8 |
| 20260505113812 | 22 | 0 | 3.2 | 12.9 | 0.00 | 0.00 | 0.00 | 92 | 993.7 |
| 20260505113311 | 22 | 0 | 3.2 | 12.9 | 0.00 | 0.00 | 0.00 | 92 | 993.8 |
| 20260505112812 | 22 | 0 | 3.2 | 12.9 | 0.00 | 0.00 | 0.00 | 92 | 994.1 |
| 20260505112531 | 22 | 0 | 3.2 | 12.9 | 0.00 | 0.00 | 0.00 | 92 | 994.1 |
| 20260505112125 | 22 | 0 | 3.2 | 9.7 | 0.00 | 0.00 | 0.00 | 91 | 994.0 |
| 20260505110807 | 22 | 0 | 3.2 | 14.5 | 0.00 | 0.00 | 0.00 | 91 | 994.0 |
| 20260505110527 | 22 | 0 | 3.2 | 9.7 | 0.00 | 0.00 | 0.00 | 91 | 993.9 |
| 20260505101800 | 21 | 0 | 1.6 | 6.4 | 0.00 | 0.00 | 0.00 | 91 | 994.1 |
| 20260505101527 | 21 | 0 | 1.6 | 4.8 | 0.00 | 0.00 | 0.00 | 91 | 994.0 |
| 20260505100800 | 21 | 0 | 0.0 | 4.8 | 0.00 | 0.00 | 0.00 | 91 | 994.0 |
| 20260505100256 | 21 | 0 | 0.0 | 4.8 | 0.00 | 0.00 | 0.00 | 91 | 994.0 |
| 20260505095756 | 21 | 0 | 1.6 | 6.4 | 0.00 | 0.00 | 0.00 | 91 | 994.0 |
| 20260505095255 | 21 | 0 | 1.6 | 8.0 | 0.00 | 0.00 | 0.00 | 91 | 994.1 |
| 20260505094755 | 21 | 0 | 1.6 | 8.0 | 0.00 | 0.00 | 0.00 | 91 | 994.2 |
| 20260505094256 | 21 | 0 | 3.2 | 6.4 | 0.00 | 0.00 | 0.00 | 90 | 994.1 |
| 20260505093755 | 21 | 0 | 1.6 | 6.4 | 0.00 | 0.00 | 0.00 | 90 | 994.0 |
| 20260505093255 | 21 | 0 | 1.6 | 6.4 | 0.00 | 0.00 | 0.00 | 91 | 994.1 |
| 20260505092755 | 21 | 0 | 1.6 | 6.4 | 0.00 | 0.00 | 0.00 | 90 | 994.1 |
| 20260505092255 | 21 | 0 | 1.6 | 6.4 | 0.00 | 0.00 | 0.00 | 90 | 994.2 |
| 20260505091755 | 21 | 0 | 3.2 | 8.0 | 0.00 | 0.00 | 0.00 | 90 | 994.2 |
| 20260505091255 | 21 | 0 | 1.6 | 8.0 | 0.00 | 0.00 | 0.00 | 90 | 994.4 |
| 20260505090755 | 21 | 0 | 0.0 | 6.4 | 0.00 | 0.00 | 0.00 | 90 | 994.4 |
| 20260505090255 | 21 | 0 | 1.6 | 4.8 | 0.00 | 0.00 | 0.00 | 90 | 994.4 |
| 20260505090246 | 21 | 0 | 1.6 | 3.2 | 0.00 | 0.00 | 0.00 | 90 | 994.4 |
| 20260505085526 | 21 | 0 | 1.6 | 8.0 | 0.00 | 0.00 | 0.00 | 89 | 994.4 |
| 20260505084753 | 21 | 0 | 1.6 | 8.0 | 0.00 | 0.00 | 0.00 | 89 | 994.4 |
| 20260505084247 | 21 | 0 | 3.2 | 8.0 | 0.00 | 0.00 | 0.00 | 89 | 994.5 |
| 20260505083747 | 21 | 0 | 1.6 | 8.0 | 0.00 | 0.00 | 0.00 | 89 | 994.4 |
| 20260505083247 | 22 | 0 | 1.6 | 8.0 | 0.00 | 0.00 | 0.00 | 89 | 994.4 |
| 20260505083016 | 22 | 0 | 3.2 | 9.7 | 0.00 | 0.00 | 0.00 | 89 | 994.5 |
| 20260505082247 | 22 | 0 | 3.2 | 14.5 | 0.00 | 0.00 | 0.00 | 89 | 994.6 |
| 20260505081746 | 22 | 0 | 3.2 | 14.5 | 0.00 | 0.00 | 0.00 | 89 | 994.7 |
| 20260505081247 | 22 | 0 | 3.2 | 9.7 | 0.00 | 0.00 | 0.00 | 89 | 994.7 |
| 20260505081009 | 22 | 0 | 3.2 | 14.5 | 0.00 | 0.00 | 0.00 | 88 | 994.6 |
| 20260505080247 | 22 | 0 | 3.2 | 14.5 | 0.00 | 0.00 | 0.00 | 88 | 994.7 |
| 20260505075743 | 22 | 0 | 3.2 | 9.7 | 0.00 | 0.00 | 0.00 | 88 | 994.9 |
| 20260505075501 | 22 | 0 | 3.2 | 9.7 | 0.00 | 0.00 | 0.00 | 88 | 994.9 |
| 20260505074743 | 22 | 0 | 3.2 | 9.7 | 0.00 | 0.00 | 0.00 | 88 | 994.9 |
| 20260505074244 | 22 | 0 | 3.2 | 8.0 | 0.00 | 0.00 | 0.00 | 88 | 994.9 |
| 20260505074001 | 22 | 0 | 3.2 | 9.7 | 0.00 | 0.00 | 0.00 | 88 | 994.9 |
| 20260505073501 | 22 | 0 | 3.2 | 9.7 | 0.00 | 0.00 | 0.00 | 88 | 995.0 |
| 20260505072744 | 22 | 0 | 1.6 | 12.9 | 0.00 | 0.00 | 0.00 | 88 | 995.0 |
| 20260505072243 | 22 | 0 | 1.6 | 12.9 | 0.00 | 0.00 | 0.00 | 87 | 995.0 |
| 20260505072002 | 22 | 0 | 1.6 | 6.4 | 0.00 | 0.00 | 0.00 | 87 | 995.1 |
| 20260505071506 | 22 | 0 | 1.6 | 8.0 | 0.00 | 0.00 | 0.00 | 87 | 995.2 |
| 20260505070739 | 22 | 0 | 3.2 | 14.5 | 0.00 | 0.00 | 0.00 | 87 | 995.3 |
| 20260505070240 | 22 | 0 | 1.6 | 14.5 | 0.00 | 0.00 | 0.00 | 87 | 995.2 |
| 20260505065739 | 22 | 0 | 1.6 | 8.0 | 0.00 | 0.00 | 0.00 | 87 | 995.2 |
| 20260505065238 | 22 | 0 | 1.6 | 12.9 | 0.00 | 0.00 | 0.00 | 87 | 995.3 |
| 20260505064739 | 22 | 0 | 3.2 | 12.9 | 0.00 | 0.00 | 0.00 | 87 | 995.4 |
| 20260505064500 | 22 | 0 | 1.6 | 8.0 | 0.00 | 0.00 | 0.00 | 86 | 995.5 |
| 20260505063742 | 22 | 0 | 0.0 | 4.8 | 0.00 | 0.00 | 0.00 | 86 | 995.4 |
| 20260505063236 | 22 | 0 | 1.6 | 4.8 | 0.00 | 0.00 | 0.00 | 86 | 995.4 |
| 20260505062733 | 22 | 0 | 1.6 | 9.7 | 0.00 | 0.00 | 0.00 | 86 | 995.5 |
| 20260505062231 | 22 | 0 | 1.6 | 9.7 | 0.00 | 0.00 | 0.00 | 86 | 995.7 |
| 20260505061732 | 22 | 0 | 3.2 | 9.7 | 0.00 | 0.00 | 0.00 | 86 | 995.6 |
| 20260505061231 | 22 | 0 | 3.2 | 9.7 | 0.00 | 0.00 | 0.00 | 86 | 995.6 |
| 20260505060731 | 22 | 0 | 3.2 | 8.0 | 0.00 | 0.00 | 0.00 | 85 | 995.7 |
| 20260505060230 | 22 | 0 | 3.2 | 8.0 | 0.00 | 0.00 | 0.00 | 85 | 995.7 |
| 20260505055950 | 22 | 0 | 1.6 | 6.4 | 0.00 | 0.00 | 0.00 | 85 | 995.7 |
| 20260505055229 | 22 | 0 | 1.6 | 8.0 | 0.00 | 0.00 | 0.00 | 85 | 995.6 |
| 20260505054730 | 22 | 0 | 1.6 | 8.0 | 0.00 | 0.00 | 0.00 | 85 | 995.6 |
| 20260505054220 | 22 | 0 | 1.6 | 9.7 | 0.00 | 0.00 | 0.00 | 85 | 995.6 |
| 20260505053711 | 22 | 0 | 3.2 | 9.7 | 0.00 | 0.00 | 0.00 | 84 | 995.8 |
| 20260505053211 | 22 | 0 | 1.6 | 9.7 | 0.00 | 0.00 | 0.00 | 84 | 995.9 |
| 20260505052710 | 22 | 0 | 1.6 | 8.0 | 0.00 | 0.00 | 0.00 | 84 | 996.0 |
| 20260505052431 | 22 | 0 | 1.6 | 8.0 | 0.00 | 0.00 | 0.00 | 84 | 996.0 |
| 20260505051707 | 22 | 0 | 1.6 | 6.4 | 0.00 | 0.00 | 0.00 | 84 | 996.1 |
| 20260505051205 | 22 | 0 | 3.2 | 8.0 | 0.00 | 0.00 | 0.00 | 83 | 996.1 |
| 20260505050705 | 22 | 0 | 3.2 | 9.7 | 0.00 | 0.00 | 0.00 | 83 | 996.2 |
| 20260505050701 | 22 | 0 | 3.2 | 9.7 | 0.00 | 0.00 | 0.00 | 83 | 996.2 |
| 20260505041656 | 22 | 0 | 3.2 | 14.5 | 0.00 | 0.00 | 0.00 | 81 | 996.1 |
| 20260505041156 | 22 | 0 | 3.2 | 14.5 | 0.00 | 0.00 | 0.00 | 81 | 996.1 |
| 20260505040656 | 23 | 0 | 3.2 | 12.9 | 0.00 | 0.00 | 0.00 | 81 | 996.0 |
| 20260505040152 | 23 | 0 | 3.2 | 9.7 | 0.00 | 0.00 | 0.00 | 81 | 996.0 |
| 20260505035916 | 23 | 0 | 3.2 | 14.5 | 0.00 | 0.00 | 0.00 | 81 | 996.2 |
| 20260505035152 | 23 | 0 | 4.8 | 14.5 | 0.00 | 0.00 | 0.00 | 81 | 996.3 |
| 20260505035139 | 23 | 0 | 4.8 | 12.9 | 0.00 | 0.00 | 0.00 | 81 | 996.2 |
| 20260505034151 | 23 | 0 | 4.8 | 16.1 | 0.00 | 0.00 | 0.00 | 80 | 996.1 |
| 20260505033648 | 23 | 0 | 6.4 | 16.1 | 0.00 | 0.00 | 0.00 | 80 | 996.1 |
| 20260505033150 | 23 | 0 | 4.8 | 16.1 | 0.00 | 0.00 | 0.00 | 80 | 996.2 |
| 20260505032910 | 23 | 0 | 3.2 | 14.5 | 0.00 | 0.00 | 0.00 | 80 | 996.3 |
| 20260505032149 | 23 | 0 | 4.8 | 14.5 | 0.00 | 0.00 | 0.00 | 79 | 996.4 |
| 20260505031645 | 23 | 0 | 4.8 | 19.3 | 0.00 | 0.00 | 0.00 | 79 | 996.4 |
| 20260505031145 | 23 | 0 | 4.8 | 19.3 | 0.00 | 0.00 | 0.00 | 79 | 996.4 |
| 20260505030736 | 23 | 0 | 3.2 | 17.7 | 0.00 | 0.00 | 0.00 | 79 | 996.3 |
| 20260505025645 | 23 | 0 | 4.8 | 16.1 | 0.00 | 0.00 | 0.00 | 78 | 996.3 |
| 20260505025147 | 23 | 0 | 6.4 | 20.9 | 0.00 | 0.00 | 0.00 | 78 | 996.2 |
| 20260505024648 | 23 | 0 | 6.4 | 20.9 | 0.00 | 0.00 | 0.00 | 78 | 996.0 |
| 20260505024146 | 23 | 0 | 4.8 | 19.3 | 0.00 | 0.00 | 0.00 | 78 | 996.0 |
| 20260505023649 | 23 | 0 | 6.4 | 20.9 | 0.00 | 0.00 | 0.00 | 78 | 995.9 |
| 20260505023144 | 24 | 0 | 6.4 | 20.9 | 0.00 | 0.00 | 0.00 | 77 | 995.9 |
| 20260505022902 | 24 | 0 | 3.2 | 9.7 | 0.00 | 0.00 | 0.00 | 77 | 995.9 |
| 20260505022144 | 24 | 0 | 4.8 | 12.9 | 0.00 | 0.00 | 0.00 | 78 | 996.1 |
| 20260505021905 | 24 | 0 | 4.8 | 12.9 | 0.00 | 0.00 | 0.00 | 77 | 996.0 |
| 20260505021141 | 24 | 0 | 3.2 | 12.9 | 0.00 | 0.00 | 0.00 | 77 | 996.0 |
| 20260505020903 | 24 | 0 | 4.8 | 16.1 | 0.00 | 0.00 | 0.00 | 78 | 996.0 |
| 20260505020141 | 24 | 0 | 4.8 | 17.7 | 0.00 | 0.00 | 0.00 | 77 | 996.0 |
| 20260505015642 | 23 | 0 | 3.2 | 17.7 | 0.00 | 0.00 | 0.00 | 78 | 995.9 |
| 20260505015141 | 23 | 0 | 3.2 | 9.7 | 0.00 | 0.00 | 0.00 | 78 | 995.9 |
| 20260505014637 | 23 | 0 | 3.2 | 14.5 | 0.00 | 0.00 | 0.00 | 77 | 995.8 |
| 20260505014137 | 23 | 0 | 3.2 | 14.5 | 0.00 | 0.00 | 0.00 | 77 | 995.7 |
| 20260505014127 | 24 | 0 | 3.2 | 8.0 | 0.00 | 0.00 | 0.00 | 77 | 995.8 |
| 20260505013355 | 24 | 0 | 3.2 | 8.0 | 0.00 | 0.00 | 0.00 | 76 | 995.7 |
| 20260505012637 | 24 | 0 | 3.2 | 8.0 | 0.00 | 0.00 | 0.00 | 76 | 995.6 |
| 20260505012137 | 24 | 0 | 3.2 | 8.0 | 0.00 | 0.00 | 0.00 | 76 | 995.6 |
| 20260505011638 | 24 | 0 | 3.2 | 9.7 | 0.00 | 0.00 | 0.00 | 76 | 995.5 |
| 20260505011137 | 24 | 0 | 3.2 | 9.7 | 0.00 | 0.00 | 0.00 | 75 | 995.5 |
| 20260505010638 | 25 | 0 | 3.2 | 12.9 | 0.00 | 0.00 | 0.00 | 75 | 995.6 |
| 20260505010133 | 25 | 0 | 3.2 | 12.9 | 0.00 | 0.00 | 0.00 | 74 | 995.7 |
| 20260505005633 | 25 | 0 | 3.2 | 8.0 | 0.00 | 0.00 | 0.00 | 74 | 995.6 |
| 20260505005133 | 25 | 0 | 4.8 | 12.9 | 0.00 | 0.00 | 0.00 | 74 | 995.6 |
| 20260505004633 | 25 | 0 | 4.8 | 16.1 | 0.00 | 0.00 | 0.00 | 74 | 995.6 |
| 20260505004134 | 25 | 0 | 4.8 | 16.1 | 0.00 | 0.00 | 0.00 | 74 | 995.6 |
| 20260505003636 | 25 | 0 | 3.2 | 12.9 | 0.00 | 0.00 | 0.00 | 73 | 995.6 |
| 20260505003133 | 25 | 0 | 3.2 | 12.9 | 0.00 | 0.00 | 0.00 | 73 | 995.5 |
| 20260505002633 | 25 | 0 | 3.2 | 12.9 | 0.00 | 0.00 | 0.00 | 73 | 995.5 |
| 20260505002134 | 25 | 0 | 3.2 | 12.9 | 0.00 | 0.00 | 0.00 | 73 | 995.6 |
| 20260505001628 | 25 | 0 | 3.2 | 12.9 | 0.00 | 0.00 | 0.00 | 73 | 995.6 |
| 20260505001353 | 25 | 0 | 4.8 | 16.1 | 0.00 | 0.00 | 0.00 | 72 | 995.6 |
| 20260505000629 | 25 | 0 | 3.2 | 16.1 | 0.00 | 0.00 | 0.00 | 72 | 995.6 |
| 20260505000128 | 26 | 0 | 4.8 | 16.1 | 0.00 | 0.00 | 0.00 | 72 | 995.6 |
| 20260504235846 | 26 | 0 | 6.4 | 16.1 | 0.00 | 0.00 | 0.00 | 71 | 995.7 |
| 20260504235129 | 26 | 0 | 4.8 | 16.1 | 0.00 | 0.00 | 0.00 | 71 | 995.7 |
| 20260504234629 | 26 | 0 | 4.8 | 16.1 | 0.00 | 0.00 | 0.00 | 71 | 995.7 |
| 20260504234127 | 26 | 0 | 4.8 | 14.5 | 0.00 | 0.00 | 0.00 | 70 | 995.8 |
| 20260504233627 | 26 | 0 | 4.8 | 12.9 | 0.00 | 0.00 | 0.00 | 70 | 995.7 |
| 20260504233121 | 26 | 0 | 4.8 | 9.7 | 0.00 | 0.00 | 0.00 | 70 | 995.7 |
| 20260504232621 | 26 | 0 | 6.4 | 22.5 | 0.00 | 0.00 | 0.00 | 69 | 995.7 |
| 20260504232123 | 26 | 0 | 6.4 | 22.5 | 0.00 | 0.00 | 0.00 | 69 | 995.7 |
| 20260504231621 | 26 | 0 | 4.8 | 16.1 | 0.00 | 0.00 | 0.00 | 68 | 995.9 |
| 20260504231121 | 26 | 0 | 4.8 | 14.5 | 0.00 | 0.00 | 0.00 | 69 | 995.9 |
| 20260504230620 | 26 | 0 | 4.8 | 14.5 | 0.00 | 0.00 | 0.00 | 68 | 996.0 |
| 20260504230120 | 26 | 0 | 4.8 | 16.1 | 0.00 | 0.00 | 0.00 | 68 | 996.1 |
| 20260504225621 | 26 | 0 | 4.8 | 16.1 | 0.00 | 0.00 | 0.00 | 68 | 996.1 |
| 20260504225121 | 26 | 0 | 4.8 | 12.9 | 0.00 | 0.00 | 0.00 | 68 | 996.2 |
| 20260504224617 | 26 | 0 | 6.4 | 16.1 | 0.00 | 0.00 | 0.00 | 67 | 996.1 |
| 20260504224336 | 26 | 0 | 6.4 | 16.1 | 0.00 | 0.00 | 0.00 | 67 | 996.1 |
| 20260504223617 | 26 | 0 | 4.8 | 14.5 | 0.00 | 0.00 | 0.00 | 67 | 996.2 |
| 20260504223115 | 27 | 0 | 4.8 | 24.1 | 0.00 | 0.00 | 0.00 | 67 | 996.3 |
| 20260504222615 | 27 | 84 | 4.8 | 24.1 | 0.00 | 0.00 | 0.00 | 66 | 996.3 |
| 20260504222115 | 26 | 84 | 4.8 | 12.9 | 0.00 | 0.00 | 0.00 | 67 | 996.3 |
| 20260504221614 | 26 | 96 | 4.8 | 12.9 | 0.00 | 0.00 | 0.00 | 66 | 996.5 |
| 20260504221116 | 26 | 90 | 4.8 | 14.5 | 0.00 | 0.00 | 0.00 | 66 | 996.5 |
| 20260504220617 | 27 | 67 | 4.8 | 14.5 | 0.00 | 0.00 | 0.00 | 66 | 996.6 |
| 20260504220337 | 27 | 0 | 3.2 | 12.9 | 0.00 | 0.00 | 0.00 | 66 | 996.6 |
| 20260504215615 | 27 | 0 | 4.8 | 16.1 | 0.00 | 0.00 | 0.00 | 66 | 996.6 |
| 20260504215110 | 27 | 70 | 4.8 | 16.1 | 0.00 | 0.00 | 0.00 | 66 | 996.6 |
| 20260504214609 | 27 | 81 | 6.4 | 14.5 | 0.00 | 0.00 | 0.00 | 65 | 996.6 |
| 20260504214108 | 27 | 105 | 6.4 | 14.5 | 0.00 | 0.00 | 0.00 | 65 | 996.7 |
| 20260504213606 | 27 | 85 | 4.8 | 14.5 | 0.00 | 0.00 | 0.00 | 65 | 997.0 |
| 20260504213107 | 27 | 92 | 3.2 | 12.9 | 0.00 | 0.00 | 0.00 | 65 | 996.9 |
| 20260504212607 | 27 | 38 | 3.2 | 9.7 | 0.00 | 0.00 | 0.00 | 65 | 996.9 |
| 20260504212323 | 27 | 85 | 3.2 | 12.9 | 0.00 | 0.00 | 0.00 | 65 | 997.0 |
| 20260504211603 | 27 | 88 | 3.2 | 12.9 | 0.00 | 0.00 | 0.00 | 64 | 997.1 |
| 20260504211103 | 27 | 67 | 3.2 | 9.7 | 0.00 | 0.00 | 0.00 | 64 | 997.1 |
| 20260504210832 | 27 | 81 | 3.2 | 12.9 | 0.00 | 0.00 | 0.00 | 65 | 997.2 |
| 20260504210101 | 27 | 67 | 4.8 | 12.9 | 0.00 | 0.00 | 0.00 | 65 | 997.3 |
| 20260504205602 | 27 | 78 | 4.8 | 16.1 | 0.00 | 0.00 | 0.00 | 65 | 997.3 |
| 20260504205101 | 27 | 0 | 3.2 | 16.1 | 0.00 | 0.00 | 0.00 | 64 | 997.3 |
| 20260504204600 | 27 | 80 | 3.2 | 8.0 | 0.00 | 0.00 | 0.00 | 64 | 997.4 |
| 20260504204059 | 27 | 66 | 3.2 | 8.0 | 0.00 | 0.00 | 0.00 | 64 | 997.6 |
| 20260504203557 | 27 | 64 | 3.2 | 9.7 | 0.00 | 0.00 | 0.00 | 65 | 997.7 |
| 20260504203055 | 27 | 0 | 3.2 | 9.7 | 0.00 | 0.00 | 0.00 | 65 | 997.7 |
| 20260504202811 | 27 | 0 | 3.2 | 19.3 | 0.00 | 0.00 | 0.00 | 64 | 997.8 |
| 20260504202052 | 27 | 65 | 3.2 | 19.3 | 0.00 | 0.00 | 0.00 | 65 | 997.9 |
| 20260504201549 | 27 | 0 | 1.6 | 8.0 | 0.00 | 0.00 | 0.00 | 66 | 998.1 |
| 20260504201539 | 27 | 0 | 3.2 | 16.1 | 0.00 | 0.00 | 0.00 | 66 | 998.2 |
| 20260504200545 | 27 | 0 | 3.2 | 16.1 | 0.00 | 0.00 | 0.00 | 64 | 998.3 |
| 20260504200302 | 27 | 0 | 3.2 | 9.7 | 0.00 | 0.00 | 0.00 | 65 | 998.4 |
| 20260504195543 | 27 | 0 | 3.2 | 9.7 | 0.00 | 0.00 | 0.00 | 65 | 998.4 |
| 20260504195042 | 27 | 0 | 3.2 | 12.9 | 0.00 | 0.00 | 0.00 | 65 | 998.5 |
| 20260504194803 | 27 | 55 | 3.2 | 12.9 | 0.00 | 0.00 | 0.00 | 65 | 998.7 |
| 20260504194038 | 27 | 0 | 3.2 | 9.7 | 0.00 | 0.00 | 0.00 | 65 | 998.7 |
| 20260504193536 | 27 | 38 | 3.2 | 9.7 | 0.00 | 0.00 | 0.00 | 65 | 998.7 |
| 20260504193136 | 27 | 0 | 3.2 | 9.7 | 0.00 | 0.00 | 0.00 | 64 | 998.8 |
| 20260504192035 | 27 | 59 | 3.2 | 12.9 | 0.00 | 0.00 | 0.00 | 65 | 998.9 |
| 20260504191754 | 27 | 0 | 3.2 | 12.9 | 0.00 | 0.00 | 0.00 | 63 | 999.0 |
| 20260504191032 | 27 | 57 | 3.2 | 12.9 | 0.00 | 0.00 | 0.00 | 65 | 998.9 |
| 20260504190533 | 26 | 0 | 4.8 | 14.5 | 0.00 | 0.00 | 0.00 | 64 | 999.2 |
| 20260504190033 | 26 | 0 | 4.8 | 14.5 | 0.00 | 0.00 | 0.00 | 63 | 999.4 |
| 20260504185755 | 26 | 0 | 4.8 | 22.5 | 0.00 | 0.00 | 0.00 | 64 | 999.4 |
| 20260504185029 | 26 | 0 | 6.4 | 22.5 | 0.00 | 0.00 | 0.00 | 64 | 999.5 |
| 20260504184528 | 26 | 0 | 4.8 | 16.1 | 0.00 | 0.00 | 0.00 | 63 | 999.4 |
| 20260504184029 | 26 | 0 | 4.8 | 14.5 | 0.00 | 0.00 | 0.00 | 65 | 999.5 |
| 20260504183529 | 26 | 0 | 4.8 | 14.5 | 0.00 | 0.00 | 0.00 | 65 | 999.6 |
| 20260504183030 | 26 | 0 | 4.8 | 9.7 | 0.00 | 0.00 | 0.00 | 66 | 999.5 |
| 20260504182525 | 26 | 63 | 6.4 | 19.3 | 0.00 | 0.00 | 0.00 | 65 | 999.6 |
| 20260504182013 | 26 | 0 | 4.8 | 19.3 | 0.00 | 0.00 | 0.00 | 64 | 999.7 |
| 20260504181513 | 26 | 0 | 4.8 | 20.9 | 0.00 | 0.00 | 0.00 | 65 | 999.7 |
| 20260504181013 | 26 | 0 | 4.8 | 20.9 | 0.00 | 0.00 | 0.00 | 65 | 999.7 |
| 20260504180512 | 26 | 0 | 4.8 | 16.1 | 0.00 | 0.00 | 0.00 | 66 | 999.8 |
| 20260504180013 | 26 | 0 | 4.8 | 16.1 | 0.00 | 0.00 | 0.00 | 65 | 999.9 |
| 20260504175513 | 26 | 63 | 3.2 | 12.9 | 0.00 | 0.00 | 0.00 | 66 | 999.8 |
| 20260504175013 | 26 | 63 | 4.8 | 12.9 | 0.00 | 0.00 | 0.00 | 66 | 1000.0 |
| 20260504174513 | 26 | 59 | 4.8 | 16.1 | 0.00 | 0.00 | 0.00 | 66 | 1000.0 |
| 20260504174013 | 25 | 63 | 3.2 | 16.1 | 0.00 | 0.00 | 0.00 | 67 | 1000.1 |
| 20260504173513 | 25 | 65 | 3.2 | 14.5 | 0.00 | 0.00 | 0.00 | 67 | 1000.1 |
| 20260504173013 | 25 | 85 | 4.8 | 17.7 | 0.00 | 0.00 | 0.00 | 66 | 1000.2 |
| 20260504172512 | 25 | 59 | 6.4 | 17.7 | 0.00 | 0.00 | 0.00 | 65 | 1000.2 |
| 20260504172013 | 25 | 55 | 6.4 | 16.1 | 0.00 | 0.00 | 0.00 | 65 | 1000.3 |